Location: Crescent
(42.8242°N, 73.7329°W)
Time: 01:38:54
(UTC+00:00)

Explorer 7 - Pass Details

Date: 21 February 2026
Orbit: 430 x 541 km, 50.2° (Epoch: 10 March)

Event Time Altitude Azimuth Distance (km) Brightness Sun altitude
Rises 21:31:22 0° 291° (WNW) 2,456 10.9 10.1°
Reaches altitude 10° 21:33:44 10° 306° (NW) 1,603 9.7 9.7°
Maximum altitude 21:36:47 25° 3° (N) 988 8.0 9.2°
Drops below altitude 10° 21:39:56 10° 61° (ENE) 1,658 8.7 8.6°
Sets 21:42:26 0° 74° (ENE) 2,563 9.6 8.2°
